2020-10-14 00:07:57 r, 19.23m,0000000002Hz,0000268629c,0000000.583s, 017.7C,00002191
2020-10-14 00:17:54 r, 19.21m,0000000002Hz,0000264962c,0000000.575s, 017.7C,00002191
2020-10-14 00:27:57 r, 19.19m,0000000002Hz,0000260229c,0000000.565s, 018.0C,00002191
2020-10-14 00:37:55 r, 19.21m,0000000002Hz,0000265604c,0000000.576s, 018.0C,00002191
2020-10-14 00:47:54 r, 19.20m,0000000001Hz,0000263932c,0000000.573s, 018.0C,00002191
2020-10-14 00:57:57 r, 19.20m,0000000002Hz,0000262003c,0000000.569s, 018.0C,00002191
2020-10-14 01:07:55 r, 19.20m,0000000002Hz,0000263791c,0000000.572s, 018.3C,00002191
2020-10-14 01:17:54 r, 19.21m,0000000002Hz,0000266225c,0000000.578s, 018.3C,00002191
2020-10-14 01:27:55 r, 19.27m,0000000002Hz,0000279487c,0000000.607s, 018.3C,00002191
2020-10-14 01:37:56 r, 19.32m,0000000001Hz,0000293557c,0000000.637s, 018.3C,00002191
2020-10-14 01:47:54 r, 19.45m,0000000001Hz,0000332885c,0000000.722s, 018.3C,00002191
2020-10-14 01:57:56 r, 19.63m,0000000001Hz,0000387948c,0000000.842s, 018.6C,00002191
2020-10-14 02:07:55 r, 19.58m,0000000001Hz,0000373455c,0000000.810s, 018.6C,00002191
2020-10-14 02:17:54 r, 19.48m,0000000002Hz,0000341708c,0000000.742s, 018.6C,00002191
2020-10-14 02:27:55 r, 19.46m,0000000001Hz,0000334993c,0000000.727s, 018.6C,00002191
2020-10-14 02:37:57 r, 19.43m,0000000001Hz,0000324659c,0000000.705s, 018.6C,00002191
2020-10-14 02:47:54 r, 19.57m,0000000001Hz,0000370215c,0000000.803s, 019.0C,00002191
2020-10-14 02:57:57 r, 19.60m,0000000001Hz,0000377252c,0000000.819s, 019.0C,00002191
2020-10-14 03:07:55 r, 19.68m,0000000001Hz,0000406346c,0000000.882s, 019.3C,00002191
2020-10-14 03:17:54 r, 19.68m,0000000001Hz,0000407081c,0000000.883s, 019.3C,00002191
2020-10-14 03:27:54 r, 19.68m,0000000001Hz,0000407849c,0000000.885s, 019.3C,00002191
2020-10-14 03:37:56 r, 19.99m,0000000000Hz,0000538488c,0000001.169s, 019.3C,00002191
2020-10-14 03:47:54 r, 19.78m,0000000001Hz,0000446264c,0000000.968s, 019.3C,00002191
2020-10-14 03:57:54 r, 19.88m,0000000001Hz,0000488511c,0000001.060s, 019.6C,00002191
2020-10-14 04:07:57 r, 19.89m,0000000001Hz,0000492707c,0000001.069s, 019.6C,00002191
2020-10-14 04:17:54 r, 19.85m,0000000001Hz,0000472404c,0000001.025s, 019.6C,00002191
2020-10-14 04:27:54 r, 19.50m,0000000001Hz,0000346556c,0000000.752s, 019.9C,00002191
2020-10-14 04:37:57 r, 19.47m,0000000001Hz,0000335977c,0000000.729s, 019.9C,00002191
2020-10-14 04:47:54 r, 19.55m,0000000002Hz,0000360663c,0000000.783s, 020.3C,00002191
2020-10-14 04:57:54 r, 19.74m,0000000001Hz,0000431801c,0000000.937s, 020.3C,00002191
2020-10-14 05:07:55 r, 19.78m,0000000001Hz,0000448203c,0000000.973s, 019.9C,00002191
2020-10-14 05:17:54 r, 19.80m,0000000001Hz,0000456241c,0000000.990s, 019.9C,00002191
2020-10-14 05:27:54 r, 19.92m,0000000001Hz,0000504128c,0000001.094s, 019.9C,00002191
2020-10-14 05:37:55 r, 19.90m,0000000001Hz,0000498258c,0000001.081s, 019.3C,00002191
2020-10-14 05:47:54 r, 19.88m,0000000001Hz,0000487469c,0000001.058s, 019.0C,00002191
2020-10-14 05:57:54 r, 19.86m,0000000001Hz,0000476767c,0000001.035s, 018.6C,00002191
2020-10-14 06:07:56 r, 19.81m,0000000001Hz,0000456251c,0000000.990s, 018.6C,00002191
2020-10-14 06:17:54 r, 19.79m,0000000001Hz,0000449286c,0000000.975s, 018.6C,00002191
2020-10-14 06:27:54 r, 19.73m,0000000001Hz,0000424043c,0000000.920s, 018.6C,00002191
2020-10-14 06:37:57 r, 19.70m,0000000001Hz,0000414676c,0000000.900s, 018.6C,00002191
2020-10-14 06:47:54 r, 19.43m,0000000002Hz,0000326446c,0000000.708s, 018.6C,00002191
2020-10-14 06:57:54 r, 18.60m,0000000004Hz,0000150679c,0000000.327s, 018.6C,00002191
2020-10-14 07:07:57 r, 17.09m,0000000012Hz,0000037882c,0000000.082s, 018.3C,00002191
2020-10-14 07:17:54 r, 15.05m,0000000079Hz,0000005747c,0000000.012s, 018.6C,00002191
2020-10-14 07:27:54 r, 12.65m,0000000734Hz,0000000000c,0000000.000s, 018.3C,00002191
2020-10-14 07:37:55 r, 11.01m,0000003332Hz,0000000000c,0000000.000s, 018.3C,00002191
2020-10-14 07:47:54 r, 09.59m,0000012324Hz,0000000000c,0000000.000s, 018.6C,00002191
2020-10-14 07:57:54 r, 08.28m,0000040972Hz,0000000000c,0000000.000s, 018.6C,00002191
2020-10-14 08:07:55 r, 07.42m,0000091016Hz,0000000000c,0000000.000s, 018.3C,00002191
2020-10-14 08:17:54 r, 06.74m,0000171954Hz,0000000000c,0000000.000s, 018.3C,00002191
2020-10-14 08:27:54 r, 06.53m,0000205854Hz,0000000000c,0000000.000s, 018.6C,00002191
2020-10-14 08:37:56 r, 06.24m,0000269051Hz,0000000000c,0000000.000s, 018.3C,00002191
2020-10-14 08:47:55 r, 05.95m,0000352496Hz,0000000000c,0000000.000s, 018.3C,00002191
2020-10-14 08:57:54 r, 00.00m,0000599994Hz,0000000000c,0000000.000s, 018.3C,00002191
2020-10-14 09:07:57 r, 00.00m,0000597357Hz,0000000000c,0000000.000s, 018.3C,00002191
2020-10-14 09:17:55 r, 00.00m,0000597248Hz,0000000000c,0000000.000s, 018.6C,00002191
2020-10-14 09:27:54 r, 00.00m,0000597251Hz,0000000000c,0000000.000s, 018.6C,00002191
2020-10-14 09:37:55 r, 00.00m,0000597222Hz,0000000000c,0000000.000s, 018.6C,00002191
2020-10-14 09:47:56 r, 00.00m,0000597332Hz,0000000000c,0000000.000s, 018.6C,00002191
2020-10-14 09:57:54 r, 00.00m,0000597341Hz,0000000000c,0000000.000s, 018.3C,00002191
2020-10-14 10:07:56 r, 00.00m,0000597216Hz,0000000000c,0000000.000s, 018.6C,00002191
2020-10-14 10:17:55 r, 00.00m,0000597262Hz,0000000000c,0000000.000s, 019.0C,00002191
2020-10-14 10:27:54 r, 00.00m,0000597349Hz,0000000000c,0000000.000s, 019.0C,00002191
2020-10-14 10:37:55 r, 00.00m,0000597220Hz,0000000000c,0000000.000s, 019.3C,00002191
2020-10-14 10:47:57 r, 00.00m,0000597177Hz,0000000000c,0000000.000s, 019.9C,00002191
2020-10-14 10:57:54 r, 00.00m,0000597015Hz,0000000000c,0000000.000s, 020.6C,00002191
2020-10-14 11:07:57 r, 00.00m,0000597060Hz,0000000000c,0000000.000s, 020.9C,00002191
2020-10-14 11:17:55 r, 00.00m,0000597003Hz,0000000000c,0000000.000s, 020.9C,00002191
2020-10-14 11:27:54 r, 00.00m,0000597062Hz,0000000000c,0000000.000s, 020.9C,00002191
2020-10-14 11:37:57 r, 00.00m,0000597088Hz,0000000000c,0000000.000s, 020.9C,00002191
2020-10-14 11:47:55 r, 00.00m,0000597084Hz,0000000000c,0000000.000s, 020.6C,00002191
2020-10-14 11:57:54 r, 00.00m,0000597004Hz,0000000000c,0000000.000s, 021.2C,00002191
2020-10-14 12:07:55 r, 00.00m,0000596956Hz,0000000000c,0000000.000s, 021.5C,00002191
2020-10-14 12:17:56 r, 00.00m,0000597032Hz,0000000000c,0000000.000s, 021.5C,00002191
2020-10-14 12:27:54 r, 00.00m,0000596989Hz,0000000000c,0000000.000s, 021.2C,00002191
2020-10-14 12:37:56 r, 00.00m,0000596851Hz,0000000000c,0000000.000s, 022.2C,00002191
2020-10-14 12:47:55 r, 00.00m,0000596735Hz,0000000000c,0000000.000s, 023.2C,00002191
2020-10-14 12:57:54 r, 00.00m,0000596607Hz,0000000000c,0000000.000s, 023.8C,00002191
2020-10-14 13:07:55 r, 00.00m,0000596596Hz,0000000000c,0000000.000s, 024.1C,00002191
2020-10-14 13:17:57 r, 00.00m,0000596527Hz,0000000000c,0000000.000s, 024.4C,00002191
2020-10-14 13:27:54 r, 00.00m,0000596652Hz,0000000000c,0000000.000s, 024.1C,00002191
2020-10-14 13:37:57 r, 00.00m,0000596719Hz,0000000000c,0000000.000s, 023.5C,00002191
2020-10-14 13:47:55 r, 00.00m,0000596565Hz,0000000000c,0000000.000s, 024.1C,00002191
2020-10-14 13:57:54 r, 00.00m,0000596471Hz,0000000000c,0000000.000s, 025.1C,00002191
2020-10-14 14:07:57 r, 00.00m,0000596453Hz,0000000000c,0000000.000s, 025.7C,00002191
2020-10-14 14:17:55 r, 00.00m,0000596310Hz,0000000000c,0000000.000s, 026.7C,00002191
2020-10-14 14:27:54 r, 00.00m,0000596352Hz,0000000000c,0000000.000s, 026.7C,00002191
2020-10-14 14:37:55 r, 00.00m,0000596342Hz,0000000000c,0000000.000s, 026.4C,00002191
2020-10-14 14:47:57 r, 00.00m,0000596328Hz,0000000000c,0000000.000s, 027.0C,00002191
2020-10-14 14:57:54 r, 00.00m,0000596253Hz,0000000000c,0000000.000s, 027.3C,00002191
2020-10-14 15:07:56 r, 00.00m,0000596176Hz,0000000000c,0000000.000s, 027.0C,00002191
2020-10-14 15:17:55 r, 00.00m,0000596192Hz,0000000000c,0000000.000s, 027.0C,00002191
2020-10-14 15:27:54 r, 00.00m,0000596145Hz,0000000000c,0000000.000s, 027.0C,00002191
2020-10-14 15:37:57 r, 00.00m,0000596213Hz,0000000000c,0000000.000s, 026.7C,00002191
2020-10-14 15:47:55 r, 00.00m,0000596301Hz,0000000000c,0000000.000s, 026.1C,00002191
2020-10-14 15:57:54 r, 00.00m,0000596293Hz,0000000000c,0000000.000s, 026.1C,00002191
2020-10-14 16:07:57 r, 00.00m,0000596435Hz,0000000000c,0000000.000s, 025.4C,00002191
2020-10-14 16:17:55 r, 00.00m,0000596515Hz,0000000000c,0000000.000s, 024.8C,00002191
2020-10-14 16:27:54 r, 00.00m,0000596646Hz,0000000000c,0000000.000s, 024.1C,00002191
2020-10-14 16:37:55 r, 00.00m,0000596618Hz,0000000000c,0000000.000s, 023.2C,00002191
2020-10-14 16:47:56 r, 00.00m,0000596666Hz,0000000000c,0000000.000s, 022.8C,00002191
2020-10-14 16:57:54 r, 00.00m,0000596753Hz,0000000000c,0000000.000s, 022.8C,00002191
2020-10-14 17:07:56 r, 00.00m,0000596824Hz,0000000000c,0000000.000s, 022.2C,00002191
2020-10-14 17:17:55 r, 00.00m,0000596834Hz,0000000000c,0000000.000s, 021.5C,00002191
2020-10-14 17:27:54 r, 00.00m,0000596910Hz,0000000000c,0000000.000s, 020.9C,00002191
2020-10-14 17:37:55 r, 00.00m,0000597006Hz,0000000000c,0000000.000s, 020.6C,00002191
2020-10-14 17:47:57 r, 05.88m,0000375825Hz,0000000000c,0000000.000s, 019.6C,00002191
2020-10-14 17:57:54 r, 06.12m,0000303093Hz,0000000000c,0000000.000s, 018.0C,00002191
2020-10-14 18:07:57 r, 06.42m,0000228901Hz,0000000000c,0000000.000s, 017.4C,00002191
2020-10-14 18:17:55 r, 06.46m,0000220478Hz,0000000000c,0000000.000s, 016.7C,00002191
2020-10-14 18:27:54 r, 06.92m,0000145237Hz,0000000000c,0000000.000s, 016.4C,00002191
2020-10-14 18:37:57 r, 07.60m,0000077287Hz,0000000000c,0000000.000s, 015.7C,00002191
2020-10-14 18:47:55 r, 08.84m,0000024703Hz,0000000000c,0000000.000s, 015.4C,00002191
2020-10-14 18:57:54 r, 10.57m,0000004997Hz,0000000000c,0000000.000s, 015.1C,00002191
2020-10-14 19:07:55 r, 12.95m,0000000563Hz,0000000000c,0000000.000s, 014.8C,00002191
2020-10-14 19:17:55 r, 15.21m,0000000070Hz,0000006643c,0000000.014s, 014.5C,00002191
2020-10-14 19:27:54 r, 17.14m,0000000012Hz,0000039584c,0000000.086s, 013.8C,00002191
2020-10-14 19:37:56 r, 18.65m,0000000003Hz,0000158569c,0000000.344s, 013.5C,00002191
2020-10-14 19:47:55 r, 19.76m,0000000001Hz,0000436665c,0000000.948s, 013.2C,00002191
2020-10-14 19:57:54 r, 20.46m,0000000000Hz,0000824398c,0000001.789s, 013.2C,00002191
2020-10-14 20:07:54 r, 20.68m,0000000000Hz,0001011997c,0000002.196s, 012.8C,00002191
2020-10-14 20:17:55 r, 20.72m,0000000001Hz,0001050901c,0000002.281s, 012.5C,00002191
2020-10-14 20:27:54 r, 20.71m,0000000001Hz,0001039089c,0000002.255s, 012.5C,00002191
2020-10-14 20:37:54 r, 20.74m,0000000001Hz,0001071273c,0000002.325s, 012.5C,00002191
2020-10-14 20:47:55 r, 20.75m,0000000000Hz,0001078809c,0000002.341s, 012.2C,00002191
2020-10-14 20:57:55 r, 20.70m,0000000001Hz,0001024183c,0000002.223s, 011.9C,00002191
2020-10-14 21:07:54 r, 20.62m,0000000000Hz,0000950606c,0000002.063s, 011.9C,00002191
2020-10-14 21:17:56 r, 20.69m,0000000001Hz,0001023313c,0000002.221s, 011.6C,00002191
2020-10-14 21:27:54 r, 20.68m,0000000001Hz,0001007696c,0000002.187s, 011.6C,00002191
2020-10-14 21:37:55 r, 20.66m,0000000001Hz,0000995111c,0000002.160s, 011.2C,00002191
2020-10-14 21:47:57 r, 20.72m,0000000001Hz,0001048062c,0000002.274s, 011.2C,00002191
2020-10-14 21:57:54 r, 20.73m,0000000000Hz,0001061825c,0000002.304s, 010.9C,00002191
2020-10-14 22:07:54 r, 20.65m,0000000000Hz,0000977949c,0000002.122s, 010.6C,00002191
2020-10-14 22:17:57 r, 20.52m,0000000001Hz,0000873010c,0000001.895s, 010.3C,00002191
2020-10-14 22:27:54 r, 20.72m,0000000000Hz,0001051698c,0000002.282s, 010.3C,00002191
2020-10-14 22:37:54 r, 20.72m,0000000000Hz,0001047875c,0000002.274s, 009.9C,00002191
2020-10-14 22:47:55 r, 20.78m,0000000000Hz,0001098720c,0000002.384s, 009.9C,00002191
2020-10-14 22:57:54 r, 20.78m,0000000001Hz,0001102109c,0000002.392s, 009.6C,00002191
2020-10-14 23:07:54 r, 20.79m,0000000000Hz,0001110987c,0000002.411s, 009.6C,00002191
2020-10-14 23:17:55 r, 20.80m,0000000001Hz,0001114775c,0000002.419s, 009.3C,00002191
2020-10-14 23:27:54 r, 20.80m,0000000001Hz,0001126109c,0000002.444s, 009.0C,00002191
2020-10-14 23:37:54 r, 20.80m,0000000000Hz,0001123699c,0000002.439s, 009.0C,00002191
2020-10-14 23:47:56 r, 20.80m,0000000000Hz,0001124800c,0000002.441s, 009.0C,00002191
2020-10-14 23:57:54 r, 20.80m,0000000001Hz,0001124178c,0000002.440s, 009.0C,00002191
